www.pogodaiklimat.ru

Погода и климат >> Архив погоды >> Россия >> Красноярский край >> Туруханск


АРХИВ ПОГОДЫ в Туруханске

Время (UTC), дата Ветер
(напр.,м/с)
 
Видим.   Явления Облачность Т
(С)
Тd
(С)
f
(%)
Тe
(С)
Тes
(С)
Комфортность P
(гПа)
Po
(гПа)
Тmin
(С)
Tmax
(С)
R
(мм)
R24
(мм)
S
(см)
06 19.08 В 1 20 км 3/0
[Ci fib]
+22.8 +12.9 54 +26 +34 жарко 1015.2 1010.3
09 19.08 В 1 20 км 6/3 1000 м
[Cu hum Ci fib]
+25.0 +12.6 46 +27 +31 жарко 1015.2 1010.3
12 19.08 СВ 1 10 км дым 6/0
[Ci fib]
+23.4 +12.6 51 +26 +27 жарко 1015.5 1010.6 +25.5
15 19.08 СВ 2 10 км дым 8/0
[Ci fib]
+17.8 +13.0 73 +18 +18 1016.5 1011.5
18 19.08 СВ 2 50 км 4/0
[Ci fib]
+16.4 +12.4 77 +17 +17 1017.5 1012.5
21 19.08 В 2 20 км 4/3
[Sc Ci fib]
+14.9 +9.3 69 +15 +15 1017.7 1012.7
00 20.08 СВ 2 20 км 9/0
[Cs]
+15.2 +10.9 75 +15 +16 1018.4 1013.4 +14.1
03 20.08 В 1 10 км дым 8/0
[Ci fib]
+19.6 +13.1 66 +22 +27 комфорт 1019.1 1014.1
06 20.08 С 2 10 км дым 6/0
[Ci fib]
+23.4 +16.1 64 +28 +35 душно 1019.0 1014.1
09 20.08 С 2 10 км дым 9/0
[Ci fib]
+24.3 +13.1 50 +26 +30 жарко 1018.7 1013.8
12 20.08 С 3 10 км дым 3/0
[Ci fib]
+22.3 +15.3 65 +26 +27 жарко 1018.9 1014.0 +24.3
15 20.08 С 3 20 км 4/0
[Ci fib]
+18.0 +16.3 90 +18 +18 1019.1 1014.1
18 20.08 С 1 20 км 4/0
[Ci fib]
+13.9 +13.5 97 +14 +14 1019.4 1014.4
21 20.08 В 2 20 км 4/0
[Ci fib]
+14.2 +12.6 90 +14 +14 1019.2 1014.2
00 21.08 В 2 20 км 4/0
[Ci fib]
+15.0 +13.2 89 +15 +15 1019.6 1014.6 +13.4
03 21.08 В 4 20 км 4/0
[Ci fib]
+19.8 +9.7 52 +21 +24 комфорт 1019.5 1014.5
06 21.08 В 4 20 км 3/0
[Ci fib]
+23.2 +9.4 41 +25 +29 комфорт 1018.9 1014.0
09 21.08 В 3 20 км 5/3
[Cu hum Ci fib]
+24.0 +9.8 41 +25 +28 комфорт 1018.2 1013.3
12 21.08 СВ 1 50 км 8/3
[Cu hum Ci fib]
+22.9 +9.9 44 +25 +25 комфорт 1017.8 1012.9 +24.5
15 21.08 СВ 2 20 км 6/0
[Ci fib]
+17.5 +10.4 63 +18 +18 1017.8 1012.8
18 21.08 СВ 2 20 км 5/0
[Ci fib]
+15.2 +9.4 68 +15 +15 1017.3 1012.3
21 21.08 СВ 1 20 км 3/0
[Ci fib]
+11.8 +8.6 81 +12 +12 1016.6 1011.6
00 22.08 20 км н/о +11.6 +9.0 84 +11 +12 1016.4 1011.4 +10.6
03 22.08 В 2 20 км 5/4 1000 м
[Sc Ci fib]
+16.6 +11.0 69 +17 +19 1015.8 1010.8
06 22.08 СВ 2 20 км 9/8 1000 м
[Sc Ci fib]
+21.9 +10.9 50 +24 +25 комфорт 1014.6 1009.7
09 22.08 СЗ 2 20 км 5/0
[Ci fib]
+22.5 +11.2 49 +25 +29 комфорт 1013.3 1008.4
12 22.08 СВ 2 20 км 6/3 1000 м
[Sc Ci fib]
+21.2 +10.9 52 +23 +23 комфорт 1012.8 1007.8 +22.5
15 22.08 В 1 20 км 8/3 1000 м
[Sc Ci fib]
+15.6 +12.3 81 +16 +16 1012.6 1007.6
18 22.08 В 1 20 км 8/5 1000 м
[Sc Ci fib]
+12.2 +11.4 95 +12 +12 1011.7 1006.7
21 22.08 С 1 20 км 8/4 1000 м
[Sc Ci fib]
+11.0 +10.6 97 +11 +11 1011.4 1006.3
00 23.08 В 1 20 км 9/8 1000 м
[Sc Ci fib]
+12.6 +12.0 96 +13 +13 1011.3 1006.3 +9.7
03 23.08 ЮВ 1 20 км 9/6 1000 м
[Sc Ci fib]
+15.2 +11.7 80 +16 +17 1011.0 1006.0
06 23.08 ЮЗ 1 20 км 9/5 1000 м
[Sc Ci fib]
+19.8 +12.9 64 +23 +26 комфорт 1010.1 1005.1
09 23.08 Ю 2 20 км 8/4 600 м
[Cu hum Ci fib]
+21.9 +12.9 57 +25 +27 комфорт 1009.1 1004.3
12 23.08 Ю 1 20 км в посл. час гроза {ливн. осадки} 9/8 600 м
[Sc Ac trans Ci fib]
+18.8 +14.1 74 +21 +21 комфорт 1009.4 1004.5 +28.2 2
15 23.08 штиль 0 20 км 9/8 1000 м
[Sc Ci fib]
+16.2 +13.7 85 +16 +16 1009.4 1004.5
18 23.08 ЮВ 1 20 км 9/8 1000 м
[Sc Ci fib]
+13.6 +11.2 85 +14 +14 1009.2 1004.2
21 23.08 ЮВ 1 20 км 3/0
[Ci fib]
+13.0 +11.7 92 +13 +13 1008.6 1003.6
00 24.08 ЮВ 2 20 км 3/0
[Ci fib]
+12.3 +11.4 94 +11 +12 1008.2 1003.2 +9.7
03 24.08 Ю 4 20 км 4/0
[Ci fib]
+15.6 +12.9 84 +15 +17 1008.0 1003.0
06 24.08 Ю 2 4000 м мгла 10/8 600 м
[Sc Ac trans]
+19.8 +13.3 66 +22 +23 комфорт 1007.2 1002.3
09 24.08 Ю 3 10 км мгла 9/8 1000 м
[Cu hum Ac trans Ci fib]
+21.5 +12.5 57 +24 +24 комфорт 1005.9 1001.1
12 24.08 Ю 2 10 км мгла 9/4 1000 м
[Sc Ac trans]
+20.2 +13.6 66 +23 +23 комфорт 1005.4 1000.5 +22.1
15 24.08 ЮВ 1 10 км мгла 8/6 600 м
[Sc Ac trans]
+17.3 +12.0 71 +18 +18 1004.4 999.5
18 24.08 ЮВ 2 10 км мгла 9/9 600 м
[Sc]
+17.1 +11.6 70 +17 +17 1003.7 998.8
21 24.08 ЮВ 2 10 км мгла 9/9 600 м
[Sc]
+16.4 +11.0 70 +17 +17 1002.7 997.8
00 25.08 Ю 4 10 км мгла 9/9 300 м
[Sc]
+16.5 +11.3 71 +16 +16 1002.9 998.0 +16.4
03 25.08 ЮВ 3 10 км слаб. ливневой дождь 10/10 300 м
[Cb cap]
+15.6 +12.9 84 +15 +15 1002.8 997.8 +15.2
06 25.08 Ю 5 10 км слаб. ливневой дождь 10/10 300 м
[Cb cap]
+16.5 +13.3 81 +16 +16 1002.7 997.8
09 25.08 Ю 3 10 км {ливн. осадки} 9/9 300 м
[Cb cap]
+17.9 +14.1 78 +18 +18 1002.2 997.3
12 25.08 Ю 3 10 км слаб. ливневой дождь 9/8 300 м
[Cb cap Ci fib]
+17.2 +12.3 73 +17 +17 1001.9 997.0 +17.9 2
15 25.08 Ю 4 20 км {ливн. осадки} 8/8 600 м
[Sc]
+14.8 +12.0 83 +14 +14 1002.5 997.5
18 25.08 Ю 2 20 км {ливн. осадки} 8/8 600 м
[Sc]
+13.9 +11.9 88 +13 +13 1002.8 997.8
21 25.08 Ю 3 20 км 6/4 600 м
[Sc Ci fib]
+13.1 +11.0 87 +12 +12 1002.9 997.9
00 26.08 Ю 4 20 км 10/10 300 м
[Cb cap]
+12.5 +11.2 92 +10 +10 1003.5 998.5 +12.3 0.0
03 26.08 Ю 5 4000 м слаб. дождь 10/10 300 м
[Frnb Ns]
+12.2 +12.0 99 +10 +10 1003.3 998.3 +11.7

 

Местоположение метеостанции Туруханск (Красноярский край, Россия): широта 65.78 долгота 87.93 высота над уровнем моря 38 м.

В архиве по умолчанию представлена погода в Туруханске за последнюю неделю. Архивные данные за месяц целиком и за предыдущие месяцы, начиная с января 2011 года, Вы можете получить, выбрав интересующий диапазон дат из раскрывающегося списка и нажав кнопку "Ввод!".


*Определитесь, кто Вы:
робот инопланетянин человек

Внимание! Время в таблицах - всемирное. Для получения местного времени необходимо прибавить поправку, которая равна 7 ч.

Смотрите также архив погоды в соседних городах и на ближайших метеорологических станциях:

Погода в Курейке (Красноярский край, Россия) (83 км)
Погода в Большом Пороге (Эвенкия, Россия) (98 км)
Погода в Светлогорске (Красноярский край, Россия) (132 км)
Погода в Верещагино (Красноярский край, Россия) (174 км)
Погода в Горбиачине (Красноярский край, Россия) (189 км)
Погода в Игарке (Красноярский край, Россия) (197 км)
Погода в Советской Речке (Красноярский край, Россия) (218 км)
Погода в Красноселькупске (Ямало-Ненецкий АО, Россия) (251 км)
Погода в Снежногорске (Красноярский край, Россия) (258 км)
Погода в Агате (Эвенкия, Россия) (276 км)

Пояснения к столбцам:

Ветер - указаны скорость ветра в м/с - средняя за 10 мин, порывы в срок и между сроками (в фигурных скобках) и направление, откуда дует ветер: С - северный, СВ - северо-восточный, В - восточный, ЮВ - юго-восточный, Ю - южный, ЮЗ - юго-западный, З - западный, СЗ - северо-западный.
Видимость - горизонтальная дальность видимости в метрах или километрах. При видимости от 1 до 10 км при отсутствии осадков обычно наблюдается дымка, при ухудшении видимости до 1 км и менее - туман. В сухую погоду видимость может ухудшаться дымом, пылью или мглою.
Явления - указаны атмосферные явления, наблюдавшиеся в срок или в последний час перед сроком; фигурными скобками обозначены явления, наблюдавшиеся между сроками (за 1-3 часа до срока); квадратными скобками обозначены град или гололедные отложения с указанием их диаметра в мм.
Облачность - указаны через наклонную черту общая и нижняя облачность в баллах и высота нижней границы облаков в метрах; квадратными скобками обозначены формы облаков: Ci - перистые, Cs - перисто-слоистые, Cc - перисто-кучевые, Ac - высококучевые, As - высокослоистые, Sc - слоисто-кучевые, Ns - слоисто-дождевые, Cu - кучевые, Cb - кучево-дождевые. Подробнее классификацию облаков см. в Атласе облаков (PDF).
T - Температура воздуха - температура, измеренная на высоте 2 м над землей.
Td - Температура точки росы - температура, при понижении до которой содержащийся в воздухе водяной пар достигнет насыщения.
f - Относительная влажность воздуха - влажноcть воздуха, измеренная на высоте 2 м над землей.
Te - Эффективная температура - температура, которую ощущает одетый по сезону человек в тени. Характеристика душности погоды. При расчете учитывается влияние влажности воздуха и скорости ветра на теплоощущения человека.
Tes - Эффективная температура на солнце - температура, которую ощущает человек, с поправкой на солнечный нагрев. Характеристика знойности погоды. Зависит от высоты солнца над горизонтом, облачности и скорости ветра. Ночью, в пасмурную погоду, а также при ветре 12 м/с и более поправка равна нулю.
P - Атмосферное давление - приведенное к уровню моря атмосферное давление.
Po - Атмосферное давление - измеренное на уровне метеостанции атмосферное давление.
Tmin - Минимальная температура - минимум температуры воздуха на высоте 2 м над землей.
Tmax - Максимальная температура - максимум температуры воздуха на высоте 2 м над землей.
R - Количество осадков - Количество выпавших осадков за период времени, мм. При наведении курсора мыши на число - период времени, за который выпало указанное количество осадков.
R24 - Количество осадков - Количество выпавших осадков за 24 часа, мм.
S - Снежный покров - Высота снежного покрова, см. При наведении курсора мыши на число - состояние снежного покрова и степень покрытия местности в баллах.